TimeEST,TemperatureF,Dew PointF,Humidity,Sea Level PressureIn,VisibilityMPH,Wind Direction,Wind SpeedMPH,Gust SpeedMPH,PrecipitationIn,Events,Conditions,WindDirDegrees,DateUTC
12:46 AM,35.6,33.8,93,30.09,1.8,Calm,Calm,-,N/A,,Clear,0,2012-11-08 05:46:00
12:53 AM,34.0,32.0,92,30.11,2.0,Calm,Calm,-,N/A,,Clear,0,2012-11-08 05:53:00
1:15 AM,33.8,32.0,93,30.09,1.8,Calm,Calm,-,N/A,,Clear,0,2012-11-08 06:15:00
1:27 AM,35.6,33.8,93,30.09,3.0,Calm,Calm,-,N/A,,Clear,0,2012-11-08 06:27:00
1:47 AM,33.8,30.2,87,30.10,1.8,West,3.5,-,N/A,,Clear,280,2012-11-08 06:47:00
1:53 AM,32.0,30.9,96,30.12,1.0,West,3.5,-,N/A,,Clear,280,2012-11-08 06:53:00
2:05 AM,33.8,33.8,100,30.10,3.0,WNW,3.5,-,N/A,,Clear,290,2012-11-08 07:05:00
2:23 AM,30.2,30.2,100,30.10,1.8,Calm,Calm,-,N/A,,Clear,0,2012-11-08 07:23:00
2:41 AM,30.2,30.2,100,30.11,0.5,Calm,Calm,-,N/A,Fog,Light Freezing Fog,0,2012-11-08 07:41:00
2:53 AM,30.0,30.0,100,30.13,0.2,Calm,Calm,-,N/A,Fog,Light Freezing Fog,0,2012-11-08 07:53:00
3:04 AM,30.2,28.4,93,30.12,2.0,Calm,Calm,-,N/A,,Mostly Cloudy,0,2012-11-08 08:04:00
3:29 AM,30.2,30.2,100,30.12,1.2,Calm,Calm,-,N/A,,Partly Cloudy,0,2012-11-08 08:29:00
3:42 AM,30.2,28.4,93,30.12,0.8,Calm,Calm,-,N/A,,Mist,0,2012-11-08 08:42:00
3:53 AM,30.0,28.0,92,30.14,0.2,Calm,Calm,-,N/A,Fog,Light Freezing Fog,0,2012-11-08 08:53:00
4:53 AM,28.9,28.9,100,30.16,0.2,Calm,Calm,-,N/A,Fog,Light Freezing Fog,0,2012-11-08 09:53:00
5:53 AM,28.9,28.9,100,30.18,0.2,Calm,Calm,-,N/A,Fog,Light Freezing Fog,0,2012-11-08 10:53:00
6:53 AM,28.0,28.0,100,30.20,0.2,Calm,Calm,-,N/A,Fog,Light Freezing Fog,0,2012-11-08 11:53:00
7:53 AM,28.9,28.9,100,30.22,0.2,Calm,Calm,-,N/A,Fog,Light Freezing Fog,0,2012-11-08 12:53:00
8:53 AM,30.9,30.0,96,30.25,0.2,Calm,Calm,-,N/A,Fog,Light Freezing Fog,0,2012-11-08 13:53:00
9:53 AM,34.0,34.0,100,30.26,0.2,Calm,Calm,-,N/A,Fog,Fog,0,2012-11-08 14:53:00
10:23 AM,35.6,35.6,100,30.24,1.5,Calm,Calm,-,N/A,,Overcast,0,2012-11-08 15:23:00
10:36 AM,37.4,35.6,93,30.24,2.5,Calm,Calm,-,N/A,,Overcast,0,2012-11-08 15:36:00
10:45 AM,35.6,35.6,100,30.24,3.0,Calm,Calm,-,N/A,,Mostly Cloudy,0,2012-11-08 15:45:00
10:53 AM,36.0,35.1,97,30.26,3.0,Calm,Calm,-,N/A,,Scattered Clouds,0,2012-11-08 15:53:00
11:53 AM,44.1,37.0,76,30.25,6.0,South,4.6,-,N/A,,Haze,190,2012-11-08 16:53:00
12:53 PM,48.0,35.1,61,30.22,10.0,Calm,Calm,-,N/A,,Clear,0,2012-11-08 17:53:00
1:53 PM,52.0,30.0,43,30.19,10.0,Calm,Calm,-,N/A,,Clear,0,2012-11-08 18:53:00
2:53 PM,53.1,28.9,40,30.18,10.0,NW,8.1,-,N/A,,Clear,310,2012-11-08 19:53:00
3:53 PM,53.1,28.0,38,30.19,10.0,WNW,6.9,-,N/A,,Clear,290,2012-11-08 20:53:00
4:53 PM,51.1,27.0,39,30.19,10.0,WNW,5.8,-,N/A,,Clear,290,2012-11-08 21:53:00
5:53 PM,46.9,28.9,50,30.20,10.0,West,3.5,-,N/A,,Clear,280,2012-11-08 22:53:00
6:53 PM,42.1,28.9,60,30.22,10.0,Calm,Calm,-,N/A,,Clear,0,2012-11-08 23:53:00
7:53 PM,39.0,30.0,70,30.22,9.0,Calm,Calm,-,N/A,,Clear,0,2012-11-09 00:53:00
8:53 PM,37.0,30.0,76,30.22,10.0,Calm,Calm,-,N/A,,Clear,0,2012-11-09 01:53:00
9:53 PM,34.0,30.0,85,30.22,10.0,Calm,Calm,-,N/A,,Clear,0,2012-11-09 02:53:00
10:53 PM,33.1,30.0,89,30.22,10.0,Calm,Calm,-,N/A,,Clear,0,2012-11-09 03:53:00
11:53 PM,30.9,28.9,92,30.22,10.0,Calm,Calm,-,N/A,,Clear,0,2012-11-09 04:53:00